"TOA5","MOW","CPU:UNC_MeetingWaters","DataHourly"
"TIMESTAMP","SondeTempC","SpCond","DOSat","DOmg","pH","Turb","BattVolt_Min"
"TS","","","","","","",""
"","Smp","Smp","Smp","Smp","Smp","Smp","Min"
"2001-12-01 00:00:00",16.7299995422,0.236000001431,78.0999984741,7.57999992371,6.98999977112,2.0,12.4300003052
"2001-12-01 01:00:00",16.5699996948,0.236000001431,77.9000015259,7.59999990463,6.98000001907,1.89999997616,12.4099998474
"2001-12-01 02:00:00",16.3799991608,0.241999998689,75.5,7.38999986649,6.98000001907,1.89999997616,12.3999996185
"2001-12-01 03:00:00",16.1599998474,0.244000002742,76.9000015259,7.55000019073,6.98000001907,2.09999990463,12.3900003433
"2001-12-01 04:00:00",15.9399995804,0.24699999392,75.0,7.40999984741,6.96000003815,2.70000004768,12.3800001144
"2001-12-01 05:00:00",15.6499996185,0.245000004768,76.0,7.55000019073,6.96000003815,2.0,12.3699998856
"2001-12-01 06:00:00",15.3699998856,0.244000002742,76.3000030518,7.63000011444,6.96000003815,2.29999995232,12.3599996567
"2001-12-01 07:00:00",15.2100000381,0.233999997377,77.6999969482,7.78999996185,6.96999979019,2.20000004768,12.3500003815
"2001-12-01 08:00:00",15.1700000763,0.238000005484,78.8000030518,7.90999984741,7.01999998093,2.0,12.3500003815
"2001-12-01 09:00:00",15.2600002289,0.237000003457,81.4000015259,8.15999984741,7.05000019073,1.89999997616,12.4399995804
"2001-12-01 10:00:00",15.3999996185,0.245000004768,86.6999969482,8.67000007629,7.09000015259,2.0,12.7100000381
"2001-12-01 11:00:00",15.6700000763,0.248999997973,90.0999984741,8.94999980927,7.15999984741,1.89999997616,12.720000267
"2001-12-01 12:00:00",16.1499996185,0.25,95.0999984741,9.35000038147,7.19999980927,2.0,13.1199998856
"2001-12-01 13:00:00",16.5300006866,0.248999997973,96.0,9.36999988556,7.21000003815,1.89999997616,13.0
"2001-12-01 14:00:00",16.6700000763,0.24699999392,94.5,9.18999958038,7.21000003815,1.89999997616,12.8000001907
"2001-12-01 15:00:00",16.7199993134,0.245000004768,95.0999984741,9.23999977112,7.19000005722,2.0,12.7399997711
"2001-12-01 16:00:00",16.7000007629,0.246000006795,92.1999969482,8.96000003815,7.19000005722,1.79999995232,13.220000267
"2001-12-01 17:00:00",16.5200004578,0.245000004768,91.0,8.88000011444,7.17999982834,1.89999997616,12.7299995422
"2001-12-01 18:00:00",16.1800003052,0.243000000715,89.0999984741,8.76000022888,7.15999984741,1.89999997616,12.6700000763
"2001-12-01 19:00:00",15.8699998856,0.239999994636,91.0,9.0,7.13000011444,2.20000004768,12.6300001144
"2001-12-01 20:00:00",15.5500001907,0.238999992609,92.5,9.21000003815,7.11999988556,1.79999995232,12.6000003815
"2001-12-01 21:00:00",15.2700004578,0.237000003457,92.1999969482,9.22999954224,7.09999990463,1.79999995232,12.5699996948
"2001-12-01 22:00:00",14.9200000763,0.233999997377,92.5999984741,9.35000038147,7.11999988556,1.79999995232,12.5500001907
"2001-12-01 23:00:00",14.6499996185,0.232999995351,92.8000030518,9.42000007629,7.11000013351,2.0,12.529999733
"2001-12-02 00:00:00",14.3800001144,0.231000006199,92.9000015259,9.48999977112,7.09999990463,3.0,12.5100002289
"2001-12-02 01:00:00",14.0900001526,0.222000002861,92.5,9.5,7.09999990463,3.70000004768,12.4899997711
"2001-12-02 02:00:00",13.8199996948,0.207000002265,92.0999984741,9.52999973297,7.09999990463,4.19999980927,12.4799995422
"2001-12-02 03:00:00",13.6700000763,0.240999996662,91.3000030518,9.47999954224,7.11999988556,4.30000019073,12.4600000381
"2001-12-02 04:00:00",13.4399995804,0.239999994636,92.3000030518,9.61999988556,7.11000013351,3.5,12.4399995804
"2001-12-02 05:00:00",13.2100000381,0.240999996662,93.0999984741,9.76000022888,7.11999988556,4.5,12.4099998474
"2001-12-02 06:00:00",12.9899997711,0.240999996662,93.0,9.78999996185,7.11999988556,3.0,12.3900003433
"2001-12-02 07:00:00",12.8000001907,0.22499999404,93.0999984741,9.84000015259,7.13000011444,2.5,12.3699998856
"2001-12-02 08:00:00",12.7600002289,0.203999996185,94.0999984741,9.96000003815,7.17000007629,2.29999995232,12.3800001144
"2001-12-02 09:00:00",12.8100004196,0.256000012159,96.8000030518,10.2299995422,7.21999979019,2.5,12.6899995804
"2001-12-02 10:00:00",13.0200004578,0.273000001907,100.199996948,10.5399999619,7.26000022888,2.29999995232,12.9499998093
"2001-12-02 11:00:00",13.1300001144,0.277999997139,102.699996948,10.7899999619,7.30999994278,2.0,12.8699998856
"2001-12-02 12:00:00",13.6800003052,0.307000011206,105.300003052,10.9300003052,7.34999990463,2.09999990463,13.3000001907
"2001-12-02 13:00:00",14.0,0.301999986172,107.0,11.0200004578,7.40000009537,1.79999995232,13.3800001144
"2001-12-02 14:00:00",14.1700000763,0.275999993086,107.300003052,11.0100002289,7.42000007629,1.89999997616,12.9899997711
"2001-12-02 15:00:00",14.2299995422,0.259999990463,105.800003052,10.8400001526,7.42000007629,2.0,12.8599996567
"2001-12-02 16:00:00",14.1499996185,0.289999991655,103.199996948,10.5900001526,7.51000022888,1.70000004768,13.3699998856
"2001-12-02 17:00:00",13.9899997711,0.280999988317,100.5,10.3500003815,7.40000009537,1.79999995232,12.75
"2001-12-02 18:00:00",13.6800003052,0.282999992371,98.0,10.1599998474,7.30999994278,1.89999997616,12.6899995804
"2001-12-02 19:00:00",13.4099998474,0.266000002623,96.0999984741,10.029999733,7.28000020981,1.70000004768,12.6599998474
"2001-12-02 20:00:00",13.1599998474,0.263999998569,95.5999984741,10.029999733,7.25,1.79999995232,12.6300001144
"2001-12-02 21:00:00",12.8999996185,0.266000002623,95.1999969482,10.0500001907,7.23999977112,1.79999995232,12.6099996567
"2001-12-02 22:00:00",12.6499996185,0.261999994516,95.3000030518,10.1099996567,7.21999979019,1.70000004768,12.5900001526
"2001-12-02 23:00:00",12.3599996567,0.243000000715,95.3000030518,10.1800003052,7.21000003815,1.5,12.5699996948
"2001-12-03 00:00:00",12.0799999237,0.237000003457,95.0999984741,10.220000267,7.21000003815,1.60000002384,12.5500001907
"2001-12-03 01:00:00",11.8000001907,0.238000005484,95.0,10.279999733,7.21000003815,1.5,12.5399999619
"2001-12-03 02:00:00",11.529999733,0.218999996781,95.0999984741,10.3500003815,7.21000003815,1.5,12.5200004578
"2001-12-03 03:00:00",11.279999733,0.175999999046,94.9000015259,10.3900003433,7.21000003815,1.5,12.5
"2001-12-03 04:00:00",10.9799995422,0.175999999046,95.0999984741,10.4899997711,7.21000003815,1.70000004768,12.4799995422
"2001-12-03 05:00:00",10.7399997711,0.201000005007,95.0999984741,10.5399999619,7.21999979019,1.5,12.470000267
"2001-12-03 06:00:00",10.470000267,0.195999994874,95.4000015259,10.6400003433,7.21999979019,1.60000002384,12.4499998093
"2001-12-03 07:00:00",10.2100000381,0.247999995947,95.4000015259,10.7100000381,7.23000001907,1.70000004768,12.4300003052
"2001-12-03 08:00:00",9.97000026703,0.254000008106,95.9000015259,10.8299999237,7.23999977112,1.60000002384,12.4200000763
"2001-12-03 09:00:00",9.88000011444,0.238000005484,97.8000030518,11.0699996948,7.25,1.60000002384,12.4600000381
"2001-12-03 10:00:00",10.220000267,0.209999993443,101.300003052,11.3599996567,7.30999994278,1.60000002384,13.1099996567
"2001-12-03 11:00:00",10.6400003433,0.259999990463,102.199996948,11.3500003815,7.32000017166,2.09999990463,12.8699998856
"2001-12-03 12:00:00",11.3500003815,0.268000006676,104.599998474,11.4300003052,7.34999990463,1.89999997616,13.3400001526
"2001-12-03 13:00:00",11.8100004196,0.268000006676,105.300003052,11.3900003433,7.36000013351,2.0,13.4899997711
"2001-12-03 14:00:00",11.9899997711,0.268000006676,104.800003052,11.2899999619,7.38000011444,2.0,12.8199996948
"2001-12-03 15:00:00",12.2399997711,0.277000010014,103.900001526,11.1300001144,7.38000011444,1.89999997616,12.7600002289
"2001-12-03 16:00:00",12.2600002289,0.284999996424,101.5,10.8699998856,7.42999982834,2.0,13.4399995804
"2001-12-03 17:00:00",12.1999998093,0.280000001192,99.8000030518,10.6999998093,7.34999990463,2.40000009537,12.7299995422
"2001-12-03 18:00:00",11.9600000381,0.268999993801,97.5,10.5100002289,7.30999994278,2.40000009537,12.6800003052
"2001-12-03 19:00:00",11.7299995422,0.261999994516,95.6999969482,10.3699998856,7.26999998093,2.59999990463,12.6400003433
"2001-12-03 20:00:00",11.4300003052,0.245000004768,94.3000030518,10.3000001907,7.23999977112,2.70000004768,12.6199998856
"2001-12-03 21:00:00",11.1800003052,0.206000000238,93.9000015259,10.3000001907,7.23000001907,2.70000004768,12.5900001526
"2001-12-03 22:00:00",10.9200000763,0.196999996901,93.3000030518,10.3100004196,7.19000005722,2.70000004768,12.5600004196
"2001-12-03 23:00:00",10.6899995804,0.172000005841,93.0,10.3199996948,7.19999980927,3.20000004768,12.5399999619
"2001-12-04 00:00:00",10.4300003052,0.188999995589,93.3000030518,10.4200000763,7.19999980927,2.70000004768,12.5100002289
"2001-12-04 01:00:00",10.1700000763,0.193000003695,92.6999969482,10.4200000763,7.19000005722,2.59999990463,12.4799995422
"2001-12-04 02:00:00",9.93000030518,0.201000005007,93.4000015259,10.5500001907,7.17000007629,3.79999995232,12.4399995804
"2001-12-04 03:00:00",9.69999980927,0.208000004292,93.5,10.6199998856,7.17999982834,2.90000009537,12.4200000763
"2001-12-04 04:00:00",9.48999977112,0.240999996662,93.6999969482,10.6999998093,7.21000003815,2.20000004768,12.3999996185
"2001-12-04 05:00:00",9.27000045776,0.219999998808,94.0999984741,10.7899999619,7.19999980927,2.0,12.3800001144
"2001-12-04 06:00:00",9.03999996185,0.218999996781,93.9000015259,10.8400001526,7.19999980927,1.89999997616,12.3599996567
"2001-12-04 07:00:00",8.76000022888,0.216999992728,94.0,10.9200000763,7.19000005722,1.79999995232,12.3400001526
"2001-12-04 08:00:00",8.57999992371,0.238999992609,94.3000030518,11.0,7.23000001907,2.0,12.3299999237
"2001-12-04 09:00:00",8.55000019073,0.247999995947,96.0999984741,11.220000267,7.26000022888,1.79999995232,12.3400001526
"2001-12-04 10:00:00",8.85000038147,0.24699999392,98.1999969482,11.3800001144,7.26999998093,1.70000004768,13.0500001907
"2001-12-04 11:00:00",9.52999973297,0.246000006795,101.5,11.5799999237,7.30000019073,1.60000002384,12.7299995422
"2001-12-04 12:00:00",10.3599996567,0.245000004768,105.5,11.8000001907,7.34000015259,2.0,13.2600002289
"2001-12-04 13:00:00",10.9399995804,0.25,104.400001526,11.5200004578,7.44000005722,1.70000004768,13.3299999237
"2001-12-04 14:00:00",11.4300003052,0.259000003338,104.5,11.3999996185,7.38999986649,1.5,12.8100004196
"2001-12-04 15:00:00",11.7299995422,0.259000003338,103.0,11.1700000763,7.36999988556,1.5,12.7600002289
"2001-12-04 16:00:00",11.8299999237,0.256999999285,101.900001526,11.0200004578,7.32999992371,2.09999990463,13.3400001526
"2001-12-04 17:00:00",11.7299995422,0.256999999285,99.6999969482,10.8100004196,7.30999994278,2.29999995232,12.7299995422
"2001-12-04 18:00:00",11.529999733,0.259999990463,97.1999969482,10.5799999237,7.30000019073,2.20000004768,12.6700000763
"2001-12-04 19:00:00",11.3699998856,0.264999985695,95.5,10.4399995804,7.26999998093,2.29999995232,12.6400003433
"2001-12-04 20:00:00",11.2100000381,0.266000002623,94.1999969482,10.3299999237,7.25,2.5,12.6000003815
"2001-12-04 21:00:00",10.9899997711,0.254999995232,93.3000030518,10.279999733,7.23999977112,2.40000009537,12.5799999237
"2001-12-04 22:00:00",10.7600002289,0.21400000155,92.5999984741,10.2600002289,7.23000001907,2.40000009537,12.5500001907
"2001-12-04 23:00:00",10.5399999619,0.157000005245,92.0,10.2600002289,7.21000003815,2.29999995232,12.5200004578
"2001-12-05 00:00:00",10.3699998856,0.156000003219,92.0,10.2899999619,7.21000003815,2.20000004768,12.4899997711
"2001-12-05 01:00:00",10.1999998093,0.156000003219,92.0,10.3299999237,7.21000003815,2.20000004768,12.4600000381
"2001-12-05 02:00:00",10.0100002289,0.149000003934,92.0,10.3699998856,7.21000003815,2.40000009537,12.4200000763
"2001-12-05 03:00:00",9.82999992371,0.143999993801,91.9000015259,10.4099998474,7.21000003815,2.40000009537,12.3900003433
"2001-12-05 04:00:00",9.60999965668,0.143000006676,92.3000030518,10.5100002289,7.19999980927,7.40000009537,12.3500003815
"2001-12-05 05:00:00",9.47999954224,0.143999993801,92.4000015259,10.5500001907,7.19999980927,2.79999995232,12.3299999237
"2001-12-05 06:00:00",9.31999969482,0.15000000596,92.4000015259,10.6000003815,7.21000003815,3.0,12.3199996948
"2001-12-05 07:00:00",9.13000011444,0.146999999881,92.5,10.6499996185,7.21000003815,3.40000009537,12.3000001907
"2001-12-05 08:00:00",8.97999954224,0.152999997139,92.9000015259,10.7399997711,7.21999979019,2.5,12.2899999619
"2001-12-05 09:00:00",8.96000003815,0.158999994397,94.6999969482,10.9499998093,7.23000001907,2.40000009537,12.3199996948
"2001-12-05 10:00:00",9.35999965668,0.156000003219,98.0,11.220000267,7.26000022888,3.59999990463,12.9899997711
"2001-12-05 11:00:00",9.98999977112,0.158000007272,100.099998474,11.2899999619,7.28999996185,2.0,12.6599998474
"2001-12-05 12:00:00",10.8199996948,0.24699999392,102.699996948,11.3699998856,7.38000011444,2.29999995232,13.1999998093
"2001-12-05 13:00:00",11.529999733,0.247999995947,103.599998474,11.279999733,7.36999988556,2.20000004768,13.0699996948
"2001-12-05 14:00:00",11.9600000381,0.247999995947,103.699996948,11.1800003052,7.36000013351,2.20000004768,12.8000001907
"2001-12-05 15:00:00",12.3299999237,0.252000004053,102.5,10.9499998093,7.34000015259,2.09999990463,12.75
"2001-12-05 16:00:00",12.529999733,0.259000003338,100.400001526,10.6800003052,7.34000015259,2.09999990463,13.2299995422
"2001-12-05 17:00:00",12.4899997711,0.25799998641,98.0999984741,10.4499998093,7.32000017166,1.89999997616,12.7399997711
"2001-12-05 18:00:00",12.3000001907,0.261000007391,96.4000015259,10.3100004196,7.30000019073,2.20000004768,12.6700000763
"2001-12-05 19:00:00",12.1499996185,0.254000008106,94.8000030518,10.1700000763,7.28000020981,1.89999997616,12.6300001144
"2001-12-05 20:00:00",12.0100002289,0.24699999392,93.5999984741,10.0799999237,7.26000022888,2.0,12.6099996567
"2001-12-05 21:00:00",11.8800001144,0.244000002742,93.0999984741,10.0500001907,7.26000022888,2.20000004768,12.5799999237
"2001-12-05 22:00:00",11.75,0.245000004768,92.5999984741,10.0200004578,7.23999977112,2.09999990463,12.5500001907
"2001-12-05 23:00:00",11.6099996567,0.194999992847,91.5999984741,9.96000003815,7.23000001907,2.0,12.529999733
"2001-12-06 00:00:00",11.4799995422,0.150999993086,91.0,9.92000007629,7.21999979019,2.0,12.5100002289
"2001-12-06 01:00:00",11.3400001526,0.151999995112,91.0,9.94999980927,7.21000003815,1.89999997616,12.470000267
"2001-12-06 02:00:00",11.1599998474,0.15000000596,90.5999984741,9.94999980927,7.21000003815,1.89999997616,12.4499998093
"2001-12-06 03:00:00",11.0399999619,0.149000003934,90.0999984741,9.93000030518,7.19999980927,1.89999997616,12.4099998474
"2001-12-06 04:00:00",10.8999996185,0.144999995828,90.0,9.94999980927,7.19999980927,1.79999995232,12.3800001144
"2001-12-06 05:00:00",10.7399997711,0.146999999881,90.0,9.97999954224,7.19999980927,2.0,12.3500003815
"2001-12-06 06:00:00",10.6499996185,0.155000001192,89.8000030518,9.97999954224,7.26000022888,1.89999997616,12.3299999237
"2001-12-06 07:00:00",10.4899997711,0.144999995828,90.0,10.0399999619,7.19000005722,1.89999997616,12.3100004196
"2001-12-06 08:00:00",10.3599996567,0.143000006676,90.5999984741,10.1300001144,7.19999980927,1.89999997616,12.3000001907
"2001-12-06 09:00:00",10.4099998474,0.146999999881,92.3000030518,10.3199996948,7.21000003815,2.0,12.3400001526
"2001-12-06 10:00:00",10.8800001144,0.158000007272,95.9000015259,10.6000003815,7.30999994278,1.79999995232,12.9600000381
"2001-12-06 11:00:00",11.5600004196,0.181999996305,98.1999969482,10.6800003052,7.26000022888,2.0,12.6800003052
"2001-12-06 12:00:00",12.4499998093,0.241999998689,102.0,10.8699998856,7.28999996185,1.89999997616,13.1700000763
"2001-12-06 13:00:00",13.0900001526,0.246000006795,102.599998474,10.779999733,7.32000017166,1.89999997616,13.0699996948
"2001-12-06 14:00:00",13.6000003815,0.246000006795,101.699996948,10.5600004196,7.32000017166,2.09999990463,12.8199996948
"2001-12-06 15:00:00",13.9300003052,0.245000004768,101.199996948,10.4399995804,7.32999992371,2.20000004768,12.7899999619
"2001-12-06 16:00:00",14.1199998856,0.243000000715,99.4000015259,10.220000267,7.32999992371,2.0,12.9899997711
"2001-12-06 17:00:00",14.0900001526,0.243000000715,96.5,9.92000007629,7.30999994278,2.20000004768,12.720000267
"2001-12-06 18:00:00",13.9399995804,0.246000006795,94.0999984741,9.69999980927,7.28000020981,2.09999990463,12.6700000763
"2001-12-06 19:00:00",13.7899999619,0.25,92.1999969482,9.53999996185,7.23999977112,2.09999990463,12.6400003433
"2001-12-06 20:00:00",13.6199998856,0.248999997973,91.1999969482,9.47000026703,7.23000001907,2.0,12.6099996567
"2001-12-06 21:00:00",13.4499998093,0.216000005603,90.4000015259,9.43000030518,7.23000001907,2.20000004768,12.5799999237
"2001-12-06 22:00:00",13.2899999619,0.225999996066,89.6999969482,9.38000011444,7.21999979019,2.20000004768,12.5600004196
"2001-12-06 23:00:00",13.1300001144,0.236000001431,89.3000030518,9.36999988556,7.21000003815,2.29999995232,12.5399999619
"2001-12-07 00:00:00",13.0500001907,0.246000006795,88.3000030518,9.28999996185,7.21000003815,2.79999995232,12.5100002289
"2001-12-07 01:00:00",12.9799995422,0.254999995232,88.0,9.27000045776,7.21999979019,3.09999990463,12.4899997711
"2001-12-07 02:00:00",12.8900003433,0.259000003338,88.1999969482,9.31000041962,7.21000003815,3.40000009537,12.470000267
"2001-12-07 03:00:00",12.9099998474,0.256000012159,88.4000015259,9.31999969482,7.19999980927,2.90000009537,12.4499998093
"2001-12-07 04:00:00",13.0,0.241999998689,88.5999984741,9.32999992371,7.21000003815,2.70000004768,12.4300003052
"2001-12-07 05:00:00",13.0,0.238000005484,88.5999984741,9.32999992371,7.21000003815,2.5,12.4099998474
"2001-12-07 06:00:00",12.9600000381,0.229000002146,88.4000015259,9.31000041962,7.19999980927,2.70000004768,12.3900003433
"2001-12-07 07:00:00",12.8699998856,0.230000004172,88.5999984741,9.35999965668,7.19999980927,2.09999990463,12.3699998856
"2001-12-07 08:00:00",12.75,0.236000001431,89.0,9.43000030518,7.19999980927,2.09999990463,12.3599996567
"2001-12-07 09:00:00",12.779999733,0.231000006199,91.3000030518,9.65999984741,7.21000003815,2.5,12.4499998093
"2001-12-07 10:00:00",13.2399997711,0.232999995351,95.9000015259,10.0399999619,7.23999977112,2.20000004768,12.9499998093
"2001-12-07 11:00:00",13.6700000763,0.238000005484,98.5,10.220000267,7.28000020981,2.5,12.8000001907
"2001-12-07 12:00:00",14.1999998093,0.237000003457,100.699996948,10.3299999237,7.55000019073,2.5,13.1499996185
"2001-12-07 13:00:00",14.8000001907,0.233999997377,100.099998474,10.1300001144,7.46999979019,2.70000004768,13.0699996948
"2001-12-07 14:00:00",15.0500001907,0.233999997377,98.9000015259,9.96000003815,7.42000007629,2.79999995232,12.8299999237
"2001-12-07 15:00:00",15.220000267,0.234999999404,98.8000030518,9.90999984741,7.40000009537,2.59999990463,12.8000001907
"2001-12-07 16:00:00",15.3699998856,0.238000005484,96.6999969482,9.65999984741,7.32999992371,3.09999990463,12.7299995422
"2001-12-07 17:00:00",15.3500003815,0.239999994636,93.6999969482,9.36999988556,7.32999992371,3.20000004768,12.6800003052
"2001-12-07 18:00:00",15.3199996948,0.238000005484,90.5999984741,9.06000041962,7.26999998093,3.0,12.6599998474
"2001-12-07 19:00:00",15.2100000381,0.233999997377,88.0,8.82999992371,7.21000003815,2.59999990463,12.6300001144
"2001-12-07 20:00:00",15.0900001526,0.231000006199,86.4000015259,8.68999958038,7.17999982834,2.70000004768,12.6099996567
"2001-12-07 21:00:00",14.9899997711,0.236000001431,86.0999984741,8.67000007629,7.13999986649,2.70000004768,12.5900001526
"2001-12-07 22:00:00",14.9099998474,0.232999995351,85.8000030518,8.65999984741,7.11999988556,2.59999990463,12.5699996948
"2001-12-07 23:00:00",14.8500003815,0.231000006199,85.6999969482,8.65999984741,7.11999988556,2.59999990463,12.5500001907
"2001-12-08 00:00:00",14.7399997711,0.222000002861,85.9000015259,8.69999980927,7.13000011444,2.59999990463,12.529999733
"2001-12-08 01:00:00",14.5900001526,0.194999992847,86.0,8.73999977112,7.11000013351,2.5,12.5100002289
"2001-12-08 02:00:00",14.5,0.175999999046,86.0999984741,8.77000045776,7.13999986649,2.40000009537,12.470000267
"2001-12-08 03:00:00",14.4300003052,0.21099999547,86.5,8.81999969482,7.13999986649,2.29999995232,12.4600000381
"2001-12-08 04:00:00",14.3699998856,0.172000005841,86.0999984741,8.80000019073,7.15000009537,2.40000009537,12.4399995804
"2001-12-08 05:00:00",14.3000001907,0.144999995828,86.0999984741,8.81999969482,7.15000009537,2.40000009537,12.4099998474
"2001-12-08 06:00:00",14.1199998856,0.142000004649,85.6999969482,8.81000041962,7.15999984741,2.29999995232,12.3900003433
"2001-12-08 07:00:00",13.970000267,0.142000004649,85.5999984741,8.81999969482,7.15999984741,2.40000009537,12.3699998856
"2001-12-08 08:00:00",13.8299999237,0.149000003934,86.5999984741,8.94999980927,7.17000007629,2.40000009537,12.3699998856
"2001-12-08 09:00:00",13.8800001144,0.150999993086,90.6999969482,9.36999988556,7.19000005722,2.40000009537,12.6599998474
"2001-12-08 10:00:00",14.1300001144,0.155000001192,94.9000015259,9.75,7.23999977112,2.5,13.0600004196
"2001-12-08 11:00:00",14.6300001144,0.165999993682,98.5,10.0,7.28999996185,2.40000009537,13.0699996948
"2001-12-08 12:00:00",15.1599998474,0.222000002861,101.099998474,10.1599998474,7.34000015259,2.40000009537,13.3199996948
"2001-12-08 13:00:00",15.6999998093,0.226999998093,101.699996948,10.1000003815,7.48000001907,2.5,13.0200004578
"2001-12-08 14:00:00",15.9499998093,0.222000002861,101.099998474,9.98999977112,7.42000007629,2.29999995232,12.8900003433
"2001-12-08 15:00:00",16.0900001526,0.222000002861,97.5999984741,9.60999965668,7.38999986649,2.70000004768,12.8299999237
"2001-12-08 16:00:00",16.1700000763,0.202000007033,94.8000030518,9.31999969482,7.36000013351,2.29999995232,12.8500003815
"2001-12-08 17:00:00",16.1000003815,0.158999994397,91.5999984741,9.02000045776,7.32000017166,2.29999995232,12.7299995422
"2001-12-08 18:00:00",15.8599996567,0.143999993801,89.3000030518,8.84000015259,7.26999998093,2.40000009537,12.6999998093
"2001-12-08 19:00:00",15.6300001144,0.228000000119,87.5,8.68999958038,7.23000001907,2.70000004768,12.6599998474
"2001-12-08 20:00:00",15.4300003052,0.193000003695,86.5,8.64000034332,7.19999980927,4.30000019073,12.6300001144
"2001-12-08 21:00:00",15.3000001907,0.145999997854,86.3000030518,8.64999961853,7.19999980927,2.40000009537,12.6199998856
"2001-12-08 22:00:00",15.1400003433,0.165000006557,85.5999984741,8.60999965668,7.19999980927,2.20000004768,12.6000003815
"2001-12-08 23:00:00",14.9499998093,0.215000003576,85.6999969482,8.64000034332,7.17999982834,2.29999995232,12.5799999237
"2001-12-09 00:00:00",14.7399997711,0.207000002265,85.0999984741,8.61999988556,7.19000005722,2.20000004768,12.5699996948
"2001-12-09 01:00:00",14.5,0.216000005603,85.6999969482,8.72999954224,7.19999980927,2.20000004768,12.5500001907
"2001-12-09 02:00:00",14.3199996948,0.208000004292,85.4000015259,8.72999954224,7.19999980927,2.29999995232,12.529999733
"2001-12-09 03:00:00",14.2299995422,0.193000003695,85.5,8.76000022888,7.19999980927,3.0,12.5100002289
"2001-12-09 04:00:00",14.1899995804,0.180999994278,84.9000015259,8.71000003815,7.21000003815,2.79999995232,12.5
"2001-12-09 05:00:00",14.1700000763,0.179000005126,85.1999969482,8.73999977112,7.21000003815,3.40000009537,12.4899997711
"2001-12-09 06:00:00",14.2100000381,0.17499999702,85.6999969482,8.78999996185,7.23000001907,2.20000004768,12.4799995422
"2001-12-09 07:00:00",14.1400003433,0.170000001788,85.5,8.78999996185,7.23000001907,2.0,12.470000267
"2001-12-09 08:00:00",14.1099996567,0.20000000298,85.8000030518,8.81999969482,7.23000001907,2.20000004768,12.4600000381
"2001-12-09 09:00:00",14.0900001526,0.177000001073,87.6999969482,9.01000022888,7.23999977112,2.20000004768,12.529999733
"2001-12-09 10:00:00",14.0399999619,0.16400000453,89.6999969482,9.23999977112,7.25,2.29999995232,12.5
"2001-12-09 11:00:00",14.0600004196,0.152999997139,91.0,9.35999965668,7.26000022888,2.20000004768,12.5799999237
"2001-12-09 12:00:00",14.1199998856,0.150999993086,93.5999984741,9.61999988556,7.28000020981,2.20000004768,12.9499998093